[Iaude] MPEC A127: 2024 AC3 [a=1.40,e=0.66,i=3.9,H=25.2]
    mpec at marsden.cfa.harvard.edu 
    mpec at marsden.cfa.harvard.edu
       
    Thu Jan 11 14:38:12 EST 2024
    
    
  
M.P.E.C. 2024-A127                             Issued 2024 January 11, 19:36 UT
     The Minor Planet Electronic Circulars contain information on unusual
         minor planets, routine data on comets and natural satellites,
         and occasional editorial announcements.  They are published
    on behalf of Division F of the International Astronomical Union by the
          Minor Planet Center, Smithsonian Astrophysical Observatory,
                          Cambridge, MA 02138, U.S.A.
			  
             Prepared using the Tamkin Foundation Computer Network
                              MPC at CFA.HARVARD.EDU
            URL https://www.minorplanetcenter.net/    ISSN 1523-6714
                                    2024 AC3                                    
Observations:
     K24A03C 1C2024 01 09.23732 07 10 11.41 +63 31 25.9          18.0 GVEA127703
     K24A03C 1C2024 01 09.23968 07 10 03.97 +63 28 20.7          17.8 GVEA127703
     K24A03C 1C2024 01 09.24205 07 09 56.30 +63 25 13.4          17.6 GVEA127703
     K24A03C 1C2024 01 09.24442 07 09 48.76 +63 22 07.7          17.3 GVEA127703
     K24A03C* C2024 01 10.80284 06 46 11.06 +45 24 28.3          18.8 GVEA127K88
     K24A03C  C2024 01 10.80582 06 46 09.98 +45 23 28.1                VEA127K88
     K24A03C  C2024 01 10.80881 06 46 08.89 +45 22 27.4                VEA127K88
     K24A03C KC2024 01 10.83085506 46 00.72 +45 15 04.1          19.0 RoEA127K88
     K24A03C 1C2024 01 10.83253 06 46 01.29 +45 14 09.5          18.4 VXEA127033
     K24A03C 1C2024 01 10.83276 06 46 01.21 +45 14 05.1          18.4 VXEA127033
     K24A03C 1C2024 01 10.83299 06 46 01.12 +45 14 00.5          18.5 VXEA127033
     K24A03C KC2024 01 10.83299006 45 59.92 +45 14 21.5          18.9 RoEA127K88
     K24A03C KC2024 01 10.83512106 45 59.12 +45 13 39.3          19.1 RoEA127K88
     K24A03C KC2024 01 10.83992 06 45 56.79 +45 12 04.6          19.0 VZEA127M38
     K24A03C KC2024 01 10.84005 06 45 56.58 +45 12 07.7          19.0 VqEA127L04
     K24A03C KC2024 01 10.84357 06 45 55.25 +45 10 57.7          18.9 VqEA127L04
     K24A03C KC2024 01 10.84591 06 45 54.39 +45 10 10.6          19.2 VqEA127L04
     K24A03C KC2024 01 10.84951 06 45 53.02 +45 08 59.2          19.1 VqEA127L04
     K24A03C KC2024 01 10.85119 06 45 52.72 +45 08 19.4          19.4 VZEA127M38
     K24A03C KB2024 01 10.85883 06 45 49.05 +45 06 00.0          18.7 GXEA127M45
     K24A03C KB2024 01 10.86228 06 45 47.73 +45 04 50.9          18.7 GXEA127M45
     K24A03C KC2024 01 10.86415206 45 52.202+45 03 27.61         19.3 GVEA127Z80
     K24A03C KB2024 01 10.86556 06 45 46.55 +45 03 46.1          19.0 GXEA127M45
     K24A03C KC2024 01 10.87087706 45 49.961+45 01 16.97         19.1 GVEA127Z80
     K24A03C hC2024 01 10.88292106 45 43.35 +44 58 01.1          19.0 GVEA127L01
     K24A03C hC2024 01 10.88605606 45 42.19 +44 56 59.4          18.6 GVEA127L01
     K24A03C hC2024 01 10.88912806 45 41.06 +44 56 00.3          18.8 GVEA127L01
     K24A03C KC2024 01 10.89797906 45 40.807+44 52 32.45         18.9 GVEA127J95
     K24A03C KC2024 01 10.90061606 45 39.869+44 51 41.87         18.9 GVEA127J95
     K24A03C KC2024 01 10.90357606 45 38.834+44 50 44.92         19.3 GVEA127J95
     K24A03C KC2024 01 10.90629006 45 37.853+44 49 53.47         18.6 GVEA127J95
     K24A03C KB2024 01 10.90695 06 45 35.58 +44 49 51.6          19.0 GXEA127K35
     K24A03C KB2024 01 10.90916 06 45 34.82 +44 49 09.1          19.1 GXEA127K35
     K24A03C KB2024 01 10.91138 06 45 34.03 +44 48 26.4          18.8 GXEA127K35
     K24A03C KB2024 01 10.91579 06 45 32.48 +44 47 01.7          18.4 GXEA127K35
     K24A03C 1C2024 01 11.14800 06 44 20.84 +43 36 15.5          19.9 VXEA127033
     K24A03C 1C2024 01 11.14851 06 44 20.72 +43 36 06.9          19.7 VXEA127033
     K24A03C 1C2024 01 11.14897 06 44 20.61 +43 35 59.2          19.2 VXEA127033
     K24A03C mC2024 01 11.14928006 44 45.744+43 37 31.12         19.16GVEA127I52
     K24A03C mC2024 01 11.14944906 44 45.647+43 37 28.60         19.41GVEA127I52
     K24A03C mC2024 01 11.14961906 44 45.593+43 37 25.64         19.06GVEA127I52
     K24A03C mC2024 01 11.14978806 44 45.586+43 37 22.94         19.37GVEA127I52
     K24A03C KC2024 01 11.15787806 44 41.80 +43 35 10.8          19.4 GXEA127858
     K24A03C KC2024 01 11.16502006 44 39.65 +43 33 15.6          19.2 GXEA127858
     K24A03C KC2024 01 11.17171706 44 37.62 +43 31 27.7          19.0 GXEA127858
     K24A03C KB2024 01 11.20101 06 44 25.69 +43 23 32.8          19.4 GXEA127H36
     K24A03C KB2024 01 11.20352 06 44 24.91 +43 22 52.7          19.4 GXEA127H36
     K24A03C KB2024 01 11.20589 06 44 24.16 +43 22 14.2          19.6 GXEA127H36
     K24A03C KC2024 01 11.31497506 43 50.43 +42 53 24.4          19.6 GVEA127H21
     K24A03C KC2024 01 11.31660906 43 49.97 +42 52 59.1          19.8 GVEA127H21
     K24A03C KB2024 01 11.73601906 42 58.473+41 16 53.97         19.4 GXEA127B72
     K24A03C KB2024 01 11.74436806 42 57.105+41 15 17.36         20.0 GXEA127B72
     K24A03C KB2024 01 11.75286906 42 55.691+41 13 39.70         19.7 GXEA127B72
     K24A03C KC2024 01 11.79728606 42 48.62 +41 05 26.2          19.7 GVEA127587
     K24A03C KC2024 01 11.79773106 42 48.56 +41 05 21.1                VEA127587
     K24A03C KC2024 01 11.79817506 42 48.45 +41 05 16.2                VEA127587
Observer details:
033 Karl Schwarzschild Observatory, Tautenburg.  Observers S. Melnikov, C.
    Hogner, F. Ludwig, M. Hartmann, B. Stecklum.  Measurer B. Stecklum.
    1.34-m f/3 Schmidt + CCD.
587 Sormano.  Observers F. Manca, A. Testa.  Measurer F. Manca.  0.5-m f/6.8
    reflector + CCD.
703 Catalina Sky Survey.  Observer G. J. Leonard.  Measurers B. Gray, D.
    Rankin, F. C. Shelly.  0.68-m Schmidt + 10K CCD.
858 Tebbutt Observatory, Edgewood.  Observer F. B. Zoltowski.  0.51-m f/8.1
    Schmidt-Cassegrain + CCD.
B72 Soerth.  Observer B. Koch.  0.36-m f/7.6 reflector + CMO.
H21 Astronomical Research Observatory, Westfield.  Observer R. Holmes.
    Measurers T. Linder, R. Holmes, L. Horn.  0.76-m f/3.0 astrograph + CCD.
H36 Sandlot Observatory, Scranton.  Observer G. Hug.  0.56-m f/4.8 reflector +
    CMO.
I52 Steward Observatory, Mt. Lemmon Station.  Observer K. W. Wierzchos.
    Measurers E. C. Beshore, D. Fay, J. B. Fazekas, D. C. Fuls, A. R. Gibbs,
    A. D. Grauer, H. Groeller, J. K. Hogan, R. A. Kowalski, S. M. Larson, G.
    J. Leonard, D. Rankin, R. L. Seaman, F. C. Shelly, K. W. Wierzchos.  1.0-m
    prime focus + CCD.
J95 Great Shefford.  Observer P. Birtwhistle.  0.41-m f/6.3 Schmidt-Cassegrain
    + CCD.
K35 Huenfelden.  Observer P. Remmel.  0.36-m f/1.9 reflector + CMO.
K88 GINOP-KHK, Piszkesteto.  Observer K. Sarneczky.  0.60-m Schmidt + CCD.
L01 Visnjan Observatory, Tican.  Observers K. Korlevic, L. Poropat.  Measurer
    K. Korlevic.  1.0-m f/2.9 reflector + CCD.
L04 ROASTERR-1 Observatory, Cluj-Napoca.  Observer L. Hudin.  0.3-m f/5
    reflector + CCD.
M38 Harsona Observatory, Nyiregyhaza.  Observer T. Elek.  0.20-m f/3 reflector
    + CCD.
M45 Starhopper Observatory, Sfantu Gheorghe.  Observer F. Ursache.  0.41-m
    f/7.5 reflector + CMO.
Z80 Northolt Branch Observatory.  Observer G. Wells.  0.25-m f/8.0 Ritchey-
    Chretien + CCD.
Orbital elements:
2024 AC3                                                 Earth MOID = 0.0105 AU
Epoch 2023 Sept. 13.0 TT = JDT 2460200.5                MPC                     
M 319.81390              (2000.0)            P               Q                  
n   0.59357284     Peri.  261.42662     +0.99767254     +0.00746706             
a   1.4022325      Node    98.12570     +0.01945979     +0.92146857             
e   0.6618365      Incl.    3.92580     -0.06535143     +0.38838115             
P   1.66           H   25.27          G   0.15           U   7                  
Residuals in seconds of arc
240109 703  0.4-  0.8-    240110 M45  0.4-  0.2+    240111 I52  0.4+  0.1-
240109 703  0.6+  0.4+    240110 M45  0.7-  0.5-    240111 I52  0.1-  0.1+
240109 703  0.0   0.1-    240110 Z80 (1.2-  0.8-)   240111 I52  0.1-  0.1-
240109 703  0.0   0.5+    240110 M45  0.1-  0.4-    240111 I52  0.3+  0.1-
240110 K88  0.2-  0.0     240110 Z80  0.2-  0.3-    240111 858  0.2-  0.1+
240110 K88  0.0   0.2+    240110 L01  0.1+  0.5+    240111 858  0.1-  0.0
240110 K88  0.1+  0.0     240110 L01  0.0   0.2-    240111 858  0.1-  0.1-
240110 K88  0.1-  0.1-    240110 L01  0.0   0.5+    240111 H36  0.1+  0.5-
240110 033  0.1+  0.3+    240110 J95  0.3+  0.1+    240111 H36  0.0   0.3-
240110 033  0.1+  0.5+    240110 J95  0.1+  0.1+    240111 H36  0.2-  0.8-
240110 K88  0.2-  0.0     240110 J95  0.0   0.1-    240111 H21  0.1+  0.0
240110 033  0.0   0.4+    240110 J95  0.4-  0.5+    240111 H21  0.1-  0.2+
240110 K88  0.4-  0.4+    240110 K35  0.1-  0.0     240111 B72  0.1-  0.0
240110 M38  1.5-  0.1+    240110 K35  0.1+  0.0     240111 B72  0.1-  0.0
240110 L04  0.1-  0.4-    240110 K35  0.0   0.0     240111 B72  0.0   0.3+
240110 L04  0.2-  0.2-    240110 K35  0.1+  0.1-    240111 587  0.3-  0.3-
240110 L04  0.1-  0.7-    240111 033  0.2-  0.2+    240111 587  0.0   0.4-
240110 L04  0.3-  0.4-    240111 033  0.2-  0.4+    240111 587  0.3-  0.3-
240110 M38  0.3-  0.8-    240111 033  0.2-  0.6+
Ephemeris:
2024 AC3                 a,e,i = 1.40, 0.66, 4                   q = 0.4742
Date    TT    R. A. (2000) Decl.     Delta      r    Elong.  Phase     V
2023 12 12    18 29 51.2 -26 31 37   0.3703  0.6417    17.6   152.3    31.0
...
2023 12 27    18 33 18.8 -24 42 48   0.1525  0.8313     3.3   176.1
...
2024 01 04    18 29 15.0 -17 01 45   0.05141 0.9325     8.5   171.1
...
2024 01 10    06 52 00.6 +51 42 28   0.02635 1.0063   149.8    29.4    18.7
2024 01 11    06 45 07.7 +44 21 18   0.03809 1.0184   156.1    23.1    19.3
2024 01 12    06 42 12.9 +40 28 43   0.05018 1.0304   158.7    20.3    19.8
...
2024 01 18    06 38 17.5 +33 12 51   0.1250  1.1011   158.7    19.0    21.9
...
2024 01 26    06 39 20.1 +30 51 15   0.2285  1.1915   152.3    22.6    23.5
...
2024 02 10    06 46 52.9 +29 06 08   0.4367  1.3489   139.5    28.4    25.4
A. U. Tomatic                (C) Copyright 2024 MPC           M.P.E.C. 2024-A127
    
    
More information about the Iaude
mailing list